VE3KSR Weather Reports


Display with metric or nautical units.
time (UTC)temp
F
wind
direction
speed
MPH
gust
MPH
rain 1hr
in
rain 24hr
in
rain mn
in
humidity
%
barometer
mb
20140420014045 41 181 11.0 13.0 0.05 0.00 0.00 78 1029.2
20140420013547 41 176 11.0 13.0 0.05 0.00 0.00 78 1028.9
20140420013200 41 173 12.0 14.0 0.05 0.00 0.00 77 1028.8
20140420013045 41 173 12.0 14.0 0.05 0.00 0.00 77 1028.8
20140420012545 42 169 13.0 15.0 0.05 0.00 0.00 77 1028.8
20140420012045 42 184 10.0 12.0 0.05 0.00 0.00 77 1028.7
20140420011545 42 174 11.0 13.0 0.05 0.00 0.00 76 1028.4
20140420011045 42 139 12.0 17.0 0.05 0.00 0.00 76 1028.5
20140420010900 44 169 13.0 15.0 0.05 0.00 0.00 76 1028.5
20140420010545 43 160 12.0 15.0 0.05 0.00 0.00 76 1028.6
20140420010046 43 180 12.0 14.0 0.05 0.00 0.00 76 1028.5
20140420005545 43 179 11.0 13.0 0.05 0.00 0.00 77 1028.6
20140420005045 44 169 13.0 15.0 0.05 0.00 0.00 76 1028.5
20140420004548 44 172 14.0 17.0 0.05 0.00 0.00 75 1028.5
20140420004045 44 160 14.0 17.0 0.05 0.00 0.00 75 1028.4
20140420003546 44 176 13.0 17.0 0.05 0.00 0.00 75 1028.2
20140420003045 45 173 13.0 17.0 0.05 0.00 0.00 75 1028.1
20140420002545 45 152 12.0 16.0 0.05 0.00 0.00 75 1028.1
20140420002046 45 156 12.0 14.0 0.05 0.00 0.00 74 1028.1
20140420001545 46 170 12.0 14.0 0.05 0.00 0.00 73 1028.1
20140420001046 46 160 11.0 13.0 0.05 0.00 0.00 73 1028.2
20140420000545 46 174 12.0 15.0 0.05 0.00 0.00 73 1028.4
20140420000045 46 179 13.0 16.0 0.05 0.00 0.00 72 1028.3
20140419235546 47 180 14.0 18.0 0.05 0.00 0.00 72 1028.1
20140419235045 47 174 14.0 19.0 0.05 0.00 0.00 71 1028.2
20140419234546 47 166 14.0 17.0 0.05 0.00 0.00 70 1028.1
20140419234045 48 159 11.0 13.0 0.05 0.00 0.00 68 1028.2
20140419233545 48 158 13.0 15.0 0.05 0.00 0.00 67 1028.2
20140419233045 48 159 13.0 16.0 0.05 0.00 0.00 65 1028.2
20140419232545 49 180 12.0 15.0 0.05 0.00 0.00 61 1028.2
20140419232045 49 160 13.0 17.0 0.05 0.00 0.00 54 1028.5
20140419231545 49 159 13.0 17.0 0.05 0.00 0.00 53 1028.6
20140419231045 49 149 12.0 17.0 0.05 0.00 0.00 54 1028.8
20140419230545 50 162 12.0 16.0 0.05 0.00 0.00 54 1028.7
20140419230045 50 177 13.0 16.0 0.05 0.00 0.00 54 1028.8
20140419225546 50 173 12.0 16.0 0.05 0.00 0.00 54 1028.7
20140419225046 50 153 12.0 15.0 0.05 0.00 0.00 54 1028.6
20140419224546 49 142 12.0 15.0 0.05 0.00 0.00 53 1028.6
20140419224045 51 142 10.0 13.0 0.05 0.00 0.00 53 1028.7
20140419223546 51 132 10.0 12.0 0.05 0.00 0.00 54 1028.7
20140419223045 51 159 10.0 12.0 0.05 0.00 0.00 54 1028.8
20140419222546 51 142 7.0 9.0 0.05 0.00 0.00 54 1028.8
20140419222045 51 127 6.0 8.0 0.05 0.00 0.00 54 1029.0
20140419221545 51 120 10.0 13.0 0.05 0.00 0.00 54 1028.9
20140419221045 52 120 7.0 10.0 0.05 0.00 0.00 54 1028.9
20140419220547 51 181 9.0 12.0 0.05 0.00 0.00 54 1028.9
20140419220046 51 173 10.0 13.0 0.05 0.00 0.00 54 1028.8
20140419215547 50 115 11.0 13.0 0.05 0.00 0.00 54 1028.7
20140419215045 51 135 10.0 13.0 0.05 0.00 0.00 54 1028.7
20140419214545 50 159 12.0 15.0 0.05 0.00 0.00 54 1028.6
20140419214045 51 156 11.0 15.0 0.05 0.00 0.00 53 1028.5
20140419213545 50 150 10.0 13.0 0.05 0.00 0.00 53 1028.7
20140419213045 50 122 11.0 13.0 0.05 0.00 0.00 54 1028.8
20140419212545 50 121 10.0 13.0 0.05 0.00 0.00 53 1028.8
20140419212045 50 113 11.0 15.0 0.05 0.00 0.00 54 1029.0
20140419211545 50 122 6.0 8.0 0.05 0.00 0.00 55 1028.9
20140419211045 50 97 6.0 8.0 0.05 0.00 0.00 54 1028.7
20140419210546 50 107 12.0 16.0 0.05 0.00 0.00 54 1028.8
20140419210045 50 122 10.0 13.0 0.05 0.00 0.00 55 1028.5
20140419205546 50 150 12.0 13.0 0.05 0.00 0.00 56 1028.5
20140419205045 50 149 11.0 14.0 0.05 0.00 0.00 56 1028.6
20140419204545 50 153 11.0 16.0 0.05 0.00 0.00 55 1028.7
20140419204045 50 150 10.0 14.0 0.05 0.00 0.00 58 1028.7
20140419203545 49 68 7.0 10.0 0.05 0.00 0.00 59 1029.0
20140419203045 49 156 10.0 13.0 0.05 0.00 0.00 58 1028.9
20140419202545 49 145 9.0 12.0 0.05 0.00 0.00 59 1028.9
20140419202045 49 90 9.0 11.0 0.05 0.00 0.00 60 1028.7
20140419201545 49 141 10.0 13.0 0.05 0.00 0.00 59 1028.7
20140419200046 48 86 9.0 12.0 0.05 0.00 0.00 61 1028.8
20140419195545 48 68 12.0 15.0 0.05 0.00 0.00 62 1028.9
20140419195046 48 136 5.0 8.0 0.05 0.00 0.00 63 1029.3
20140419194545 48 134 9.0 14.0 0.05 0.00 0.00 63 1029.4
20140419194045 48 129 10.0 13.0 0.05 0.00 0.00 64 1029.5
20140419193545 48 55 11.0 16.0 0.05 0.00 0.00 64 1029.6
20140419193045 48 49 11.0 14.0 0.05 0.00 0.00 62 1029.6
20140419192545 48 110 9.0 13.0 0.05 0.00 0.00 65 1029.5
20140419192045 48 129 9.0 12.0 0.05 0.00 0.00 64 1029.4
20140419191546 48 93 9.0 13.0 0.05 0.00 0.00 64 1029.4
20140419191046 48 51 8.0 11.0 0.05 0.00 0.00 66 1029.4
20140419190545 47 83 10.0 14.0 0.05 0.00 0.00 66 1029.5
20140419190046 47 38 13.0 16.0 0.05 0.00 0.00 67 1029.5
20140419185546 47 101 11.0 13.0 0.05 0.00 0.00 68 1029.6
20140419185046 46 117 12.0 15.0 0.05 0.00 0.00 66 1029.7
20140419184546 47 104 14.0 16.0 0.05 0.00 0.00 66 1029.8
20140419184046 47 135 9.0 13.0 0.05 0.00 0.00 67 1029.9
20140419183546 46 114 14.0 17.0 0.05 0.00 0.00 66 1030.0
20140419183046 46 58 15.0 21.0 0.05 0.00 0.00 66 1030.1
20140419182546 46 96 14.0 18.0 0.05 0.00 0.00 68 1030.2
20140419182046 46 111 16.0 18.0 0.05 0.00 0.00 68 1030.1
20140419181546 45 68 14.0 17.0 0.05 0.00 0.00 69 1030.2
20140419181046 46 84 14.0 17.0 0.05 0.00 0.00 69 1030.2
20140419180546 45 45 14.0 19.0 0.05 0.00 0.00 71 1030.0
20140419180046 45 66 15.0 17.0 0.05 0.00 0.00 68 1029.9
20140419175546 45 94 14.0 17.0 0.05 0.00 0.00 67 1030.0
20140419175046 45 111 12.0 16.0 0.05 0.00 0.00 68 1030.1
20140419174546 45 82 11.0 15.0 0.05 0.00 0.00 69 1030.1
20140419174046 45 45 15.0 17.0 0.05 0.00 0.00 66 1030.2
20140419173548 44 103 14.0 18.0 0.05 0.00 0.00 70 1030.2
20140419173046 44 60 14.0 18.0 0.05 0.00 0.00 67 1030.4
20140419172546 44 90 13.0 16.0 0.05 0.00 0.00 69 1030.5
20140419172046 44 77 11.0 14.0 0.05 0.00 0.00 69 1030.7
20140419171546 44 63 12.0 15.0 0.05 0.00 0.00 70 1030.8
20140419171046 44 90 14.0 17.0 0.05 0.00 0.00 70 1030.8
20140419170546 43 60 14.0 19.0 0.05 0.00 0.00 68 1030.9
20140419170046 43 59 13.0 16.0 0.05 0.00 0.00 73 1030.9
20140419165546 43 86 13.0 16.0 0.05 0.00 0.00 73 1031.0
20140419165047 42 56 13.0 17.0 0.05 0.00 0.00 72 1030.8
20140419164546 43 62 15.0 19.0 0.05 0.00 0.00 73 1030.8
20140419164046 42 107 13.0 16.0 0.05 0.00 0.00 73 1031.0
20140419163547 42 68 14.0 17.0 0.05 0.00 0.00 75 1030.6
20140419163046 42 28 16.0 18.0 0.05 0.00 0.00 75 1030.6
20140419162547 41 52 16.0 20.0 0.05 0.00 0.00 74 1030.5
20140419162310 41 58 13.0 18.0 0.05 0.00 0.00 77 1030.5
20140419162047 42 49 14.0 19.0 0.05 0.00 0.00 76 1030.5
20140419161546 42 76 14.0 17.0 0.05 0.00 0.00 75 1030.5
20140419161046 42 65 16.0 21.0 0.05 0.00 0.00 75 1030.4
20140419160546 41 58 13.0 18.0 0.05 0.00 0.00 77 1030.5
20140419160046 41 49 16.0 19.0 0.05 0.00 0.00 77 1030.5
20140419155546 41 48 14.0 19.0 0.05 0.00 0.00 76 1030.5
20140419155046 41 93 13.0 16.0 0.05 0.00 0.00 78 1030.5
20140419154546 40 103 14.0 17.0 0.05 0.00 0.00 77 1030.5
20140419154046 40 51 15.0 19.0 0.05 0.00 0.00 78 1030.6
20140419153546 41 84 15.0 18.0 0.05 0.00 0.00 77 1030.5
20140419153046 40 94 15.0 20.0 0.05 0.00 0.00 77 1030.5
20140419152546 40 69 16.0 19.0 0.05 0.00 0.00 78 1030.5
20140419152046 40 55 16.0 20.0 0.05 0.00 0.00 78 1030.5
20140419151546 40 94 14.0 18.0 0.05 0.00 0.00 80 1030.6
20140419151047 40 69 12.0 15.0 0.05 0.00 0.00 84 1030.7
20140419150546 40 48 13.0 15.0 0.05 0.00 0.00 83 1030.7
20140419150048 39 93 13.0 17.0 0.05 0.00 0.00 84 1030.7
20140419145546 39 73 14.0 17.0 0.05 0.00 0.00 86 1030.9
20140419145050 38 63 13.0 16.0 0.05 0.00 0.00 87 1031.0
20140419144546 38 77 14.0 17.0 0.05 0.00 0.00 87 1031.0
20140419144047 38 91 14.0 17.0 0.05 0.00 0.00 89 1030.8
20140419143547 37 56 14.0 16.0 0.05 0.00 0.00 90 1030.9
20140419143046 37 84 15.0 18.0 0.05 0.00 0.00 89 1030.8
20140419142547 37 84 14.0 17.0 0.05 0.00 0.00 91 1030.7
20140419142046 37 60 14.0 16.0 0.05 0.00 0.00 92 1030.7
20140419141546 36 84 14.0 18.0 0.05 0.00 0.00 91 1030.8
20140419141047 37 39 12.0 16.0 0.05 0.00 0.00 92 1030.8
20140419140546 36 53 15.0 17.0 0.05 0.00 0.00 93 1030.6
20140419140046 36 39 15.0 18.0 0.05 0.00 0.00 93 1030.4
20140419135546 35 76 15.0 18.0 0.05 0.00 0.00 93 1030.2
20140419135051 35 65 16.0 19.0 0.05 0.00 0.00 94 1030.1
20140419134546 34 38 15.0 19.0 0.05 0.00 0.00 94 1030.2
20140419134046 34 49 16.0 19.0 0.05 0.00 0.00 94 1030.2
20140419133546 34 53 16.0 19.0 0.05 0.00 0.00 94 1030.3
20140419133046 34 69 15.0 18.0 0.05 0.00 0.00 94 1030.3
20140419132546 34 72 15.0 19.0 0.05 0.00 0.00 94 1030.3
20140419132046 34 53 12.0 17.0 0.05 0.00 0.00 95 1030.2
20140419131548 34 59 15.0 18.0 0.05 0.00 0.00 95 1030.1
20140419131046 34 60 15.0 19.0 0.05 0.00 0.00 95 1030.1
20140419130546 34 58 15.0 19.0 0.05 0.00 0.00 95 1029.9
20140419130046 33 56 15.0 18.0 0.05 0.00 0.00 96 1030.0
20140419125546 33 75 13.0 15.0 0.05 0.00 0.00 96 1029.9
20140419125047 33 62 12.0 17.0 0.05 0.00 0.00 96 1029.7
20140419124546 33 65 16.0 18.0 0.05 0.00 0.00 97 1029.4
20140419124047 33 56 14.0 17.0 0.05 0.00 0.00 97 1029.2
20140419123546 32 58 14.0 18.0 0.05 0.00 0.00 97 1029.3
20140419123046 32 69 16.0 19.0 0.05 0.00 0.00 97 1029.3
20140419122546 32 69 14.0 17.0 0.05 0.00 0.00 97 1029.2
20140419122046 32 44 14.0 17.0 0.05 0.00 0.00 97 1029.4
20140419121546 31 52 12.0 14.0 0.05 0.00 0.00 97 1029.6
20140419121046 31 46 13.0 16.0 0.05 0.00 0.00 97 1029.4
20140419120546 31 45 12.0 14.0 0.05 0.00 0.00 98 1029.3
20140419120046 31 24 9.0 12.0 0.05 0.00 0.00 98 1029.4
20140419115546 31 53 10.0 14.0 0.05 0.00 0.00 98 1029.3
20140419115046 30 62 13.0 17.0 0.05 0.00 0.00 98 1029.0
20140419114546 30 44 11.0 16.0 0.05 0.00 0.00 98 1028.9
20140419114046 30 53 11.0 15.0 0.05 0.00 0.00 98 1028.9
20140419113546 30 24 12.0 15.0 0.05 0.00 0.00 98 1028.9
20140419113046 29 44 12.0 16.0 0.05 0.00 0.00 99 1028.8
20140419112546 29 55 11.0 14.0 0.05 0.00 0.00 99 1028.7
20140419112046 29 25 12.0 15.0 0.05 0.00 0.00 99 1028.5
20140419111547 29 21 14.0 17.0 0.05 0.00 0.00 99 1028.4
20140419111046 29 18 13.0 15.0 0.05 0.00 0.00 99 1028.2
20140419110547 29 17 13.0 15.0 0.05 0.00 0.00 98 1028.4
20140419110046 29 17 14.0 16.0 0.05 0.00 0.00 99 1028.0
20140419105548 29 15 13.0 16.0 0.05 0.00 0.00 98 1028.0
20140419105047 29 30 13.0 14.0 0.05 0.00 0.00 98 1027.8
20140419104732 29 21 12.0 13.0 0.05 0.00 0.00 98 1027.5
20140419104546 29 25 13.0 14.0 0.05 0.00 0.00 98 1027.6
20140419104047 29 35 13.0 15.0 0.05 0.00 0.00 98 1027.6
20140419103547 29 21 11.0 13.0 0.05 0.00 0.00 98 1027.6
20140419103047 29 21 12.0 13.0 0.05 0.00 0.00 98 1027.5
20140419102547 29 8 11.0 13.0 0.05 0.00 0.00 98 1027.6
20140419102047 29 13 11.0 13.0 0.05 0.00 0.00 98 1027.5
20140419101547 29 3 11.0 13.0 0.05 0.00 0.00 98 1027.5
20140419101047 29 25 11.0 12.0 0.05 0.00 0.00 98 1027.5
20140419100548 29 10 11.0 13.0 0.05 0.00 0.00 98 1027.4
20140419100047 29 4 11.0 12.0 0.05 0.00 0.00 98 1027.4
20140419095547 29 8 12.0 13.0 0.05 0.00 0.00 98 1027.3
20140419095047 29 10 11.0 12.0 0.05 0.00 0.00 98 1027.3
20140419094547 28 3 11.0 13.0 0.05 0.00 0.00 98 1027.4
20140419094047 29 8 11.0 12.0 0.05 0.00 0.00 98 1027.3
20140419093547 29 359 12.0 13.0 0.05 0.00 0.00 98 1027.2
20140419093047 29 8 11.0 13.0 0.05 0.00 0.00 98 1027.0
20140419092547 29 359 12.0 13.0 0.05 0.00 0.00 98 1027.0
20140419092047 29 3 11.0 13.0 0.05 0.00 0.00 98 1026.9
20140419091548 29 354 11.0 13.0 0.05 0.00 0.00 98 1026.8
20140419091047 29 1 11.0 13.0 0.05 0.00 0.00 98 1026.6
20140419090548 29 11 11.0 13.0 0.05 0.00 0.00 98 1026.6
20140419090047 29 24 11.0 13.0 0.05 0.00 0.00 98 1026.4
20140419085547 29 18 12.0 14.0 0.05 0.00 0.00 98 1026.5
20140419085047 29 14 11.0 13.0 0.05 0.00 0.00 98 1026.4
20140419084547 29 11 11.0 12.0 0.05 0.00 0.00 98 1026.4
20140419084047 29 1 11.0 13.0 0.05 0.00 0.00 98 1026.5
20140419083549 29 7 11.0 13.0 0.05 0.00 0.00 98 1026.4
20140419083048 29 8 12.0 13.0 0.05 0.00 0.00 98 1026.4
20140419082547 29 8 12.0 14.0 0.05 0.00 0.00 98 1026.4
20140419082048 29 6 13.0 15.0 0.05 0.00 0.00 98 1026.4
20140419081547 29 15 13.0 14.0 0.05 0.00 0.00 98 1026.4
20140419081047 29 3 12.0 14.0 0.05 0.00 0.00 98 1026.4
20140419080547 29 353 12.0 14.0 0.05 0.00 0.00 98 1026.4
20140419080047 29 342 12.0 16.0 0.05 0.00 0.00 98 1026.5
20140419075547 29 353 13.0 15.0 0.05 0.00 0.00 98 1026.5
20140419075047 29 359 12.0 14.0 0.05 0.00 0.00 98 1026.4
20140419074547 29 353 12.0 15.0 0.05 0.00 0.00 98 1026.4
20140419074047 29 350 12.0 15.0 0.05 0.00 0.00 98 1026.5
20140419073547 29 343 12.0 14.0 0.05 0.00 0.00 98 1026.4
20140419073047 29 0 13.0 16.0 0.05 0.00 0.00 98 1026.4
20140419072547 29 345 14.0 18.0 0.05 0.00 0.00 98 1026.5
20140419072047 29 4 13.0 14.0 0.05 0.00 0.00 98 1026.4
20140419071547 29 1 13.0 15.0 0.05 0.00 0.00 98 1026.2
20140419071048 29 8 11.0 13.0 0.05 0.00 0.00 98 1026.4
20140419070547 29 3 10.0 13.0 0.05 0.00 0.00 98 1026.1
20140419070047 29 359 11.0 13.0 0.05 0.00 0.00 98 1025.9
20140419065547 29 357 12.0 13.0 0.05 0.00 0.00 98 1025.9
20140419065048 29 347 11.0 14.0 0.05 0.00 0.00 98 1026.0
20140419064547 29 4 11.0 14.0 0.05 0.00 0.00 97 1026.0
20140419064047 29 0 11.0 14.0 0.05 0.00 0.00 97 1025.8
20140419063547 29 8 12.0 15.0 0.05 0.00 0.00 97 1026.0
20140419063048 29 350 12.0 15.0 0.05 0.00 0.00 97 1025.9
20140419062547 30 338 12.0 16.0 0.05 0.00 0.00 97 1025.8
20140419062047 30 356 11.0 14.0 0.05 0.00 0.00 97 1026.0
20140419061547 30 338 10.0 13.0 0.05 0.00 0.00 97 1026.1
20140419061047 30 330 10.0 13.0 0.05 0.00 0.00 97 1026.1
20140419060549 30 326 10.0 12.0 0.05 0.00 0.00 97 1026.2
20140419060048 30 330 10.0 13.0 0.05 0.00 0.00 97 1026.5
20140419055547 30 347 11.0 13.0 0.05 0.00 0.00 97 1026.6
20140419055048 30 346 11.0 14.0 0.05 0.00 0.00 97 1026.6
20140419054547 30 356 12.0 14.0 0.05 0.00 0.00 97 1026.7
20140419054047 30 345 12.0 15.0 0.05 0.00 0.00 96 1026.6
20140419053547 30 350 12.0 17.0 0.05 0.00 0.00 96 1026.8
20140419053047 30 3 12.0 15.0 0.05 0.00 0.00 96 1026.8
20140419052547 30 352 12.0 17.0 0.05 0.00 0.00 96 1027.0
20140419052047 30 347 12.0 15.0 0.05 0.00 0.00 96 1026.9
20140419051547 30 347 13.0 16.0 0.05 0.00 0.00 96 1026.8
20140419051047 30 336 14.0 16.0 0.05 0.00 0.00 95 1026.6
20140419050547 31 349 12.0 17.0 0.05 0.00 0.00 95 1026.7
20140419050050 31 346 15.0 19.0 0.05 0.00 0.00 95 1026.5
20140419045548 31 340 15.0 18.0 0.05 0.00 0.00 95 1026.4
20140419045050 31 352 17.0 23.0 0.05 0.00 0.00 95 1026.1
20140419044547 31 347 14.0 19.0 0.05 0.00 0.00 95 1026.4
20140419044047 31 342 17.0 22.0 0.05 0.00 0.00 95 1026.4
20140419043547 31 3 18.0 22.0 0.05 0.00 0.00 94 1026.5
20140419043048 31 347 17.0 21.0 0.05 0.00 0.00 94 1026.4
20140419042547 31 17 19.0 24.0 0.05 0.00 0.00 94 1026.6
20140419042047 31 349 18.0 24.0 0.05 0.00 0.00 94 1026.5
20140419041547 32 356 18.0 23.0 0.05 0.00 0.00 94 1026.6
20140419041049 32 336 19.0 23.0 0.05 0.00 0.00 94 1026.5
20140419040547 32 336 18.0 24.0 0.05 0.00 0.00 94 1026.4
20140419040049 32 0 17.0 25.0 0.05 0.00 0.00 94 1026.2
20140419035547 32 352 19.0 23.0 0.05 0.00 0.00 94 1026.1
20140419035047 32 352 15.0 21.0 0.05 0.00 0.00 94 1025.9
20140419034547 33 342 14.0 20.0 0.05 0.00 0.00 94 1025.8
20140419034047 33 330 13.0 17.0 0.05 0.00 0.00 94 1025.8
20140419033547 33 350 14.0 19.0 0.05 0.00 0.00 95 1025.9
20140419033047 33 350 12.0 19.0 0.05 0.00 0.00 94 1025.9
20140419032548 34 345 12.0 15.0 0.05 0.00 0.00 94 1026.0
20140419032047 34 347 11.0 15.0 0.05 0.00 0.00 94 1026.0
20140419031548 34 340 14.0 17.0 0.05 0.00 0.00 94 1026.0
20140419031049 34 342 14.0 18.0 0.05 0.00 0.00 94 1026.0
20140419030547 34 345 13.0 16.0 0.05 0.00 0.00 93 1026.0
20140419030049 34 7 15.0 18.0 0.05 0.00 0.00 93 1026.0
20140419025547 35 3 16.0 20.0 0.05 0.00 0.00 93 1025.9
20140419025048 35 7 16.0 19.0 0.05 0.00 0.00 93 1025.7
20140419024548 35 353 15.0 20.0 0.05 0.00 0.00 93 1025.5
20140419024047 35 349 17.0 20.0 0.05 0.00 0.00 93 1025.5
20140419023548 35 353 15.0 21.0 0.05 0.00 0.00 93 1025.4
20140419023049 36 352 16.0 20.0 0.05 0.00 0.00 93 1025.5
20140419022548 36 345 16.0 19.0 0.05 0.00 0.00 93 1025.5
20140419022048 36 0 16.0 20.0 0.05 0.00 0.00 93 1025.5
20140419021548 37 343 14.0 18.0 0.05 0.00 0.00 93 1025.5
20140419021048 37 24 13.0 15.0 0.05 0.00 0.00 93 1025.4
20140419020548 37 13 16.0 19.0 0.05 0.00 0.00 93 1025.6
20140419020048 38 11 16.0 19.0 0.05 0.00 0.00 93 1025.5
20140419015548 38 6 13.0 17.0 0.05 0.00 0.00 93 1025.5
20140419015048 38 15 14.0 16.0 0.05 0.00 0.00 92 1025.4
20140419014548 39 14 13.0 17.0 0.05 0.00 0.00 92 1025.1